{"data":{"norad_id":53504,"intl_designator":"2022-099AR","name":"STARLINK-4448","alt_names":[],"object_type":"PAYLOAD","status":"ACTIVE","operator":null,"country":"US","launch_date":"2022-08-12","launch_site_code":"AFWTR","launch_vehicle":null,"mission":null,"orbit_class":"UNKNOWN","rcs_meters":null,"size_class":null,"mass_kg":null,"dimensions":null,"purposes":["comms"],"wikipedia_slug":null,"has_3d_model":false,"image_url":null,"decayed_at":null,"tle_current":{"epoch":"2026-09-20T14:20:37.642560Z","epoch_age_seconds":70644,"freshness":"FRESH","line1":"1 53504U 22099AR  26263.59765790 -.00000527  00000+0 -12311-4 0  9993","line2":"2 53504  97.5050  31.1676 0001372  82.8690 277.2710 15.36970477225908","mean_motion":15.36970477,"eccentricity":0.0001372,"inclination_deg":97.505,"raan_deg":31.1676,"arg_perigee_deg":82.869,"mean_anomaly_deg":277.271,"bstar":-1.2311e-5,"rev_number":22590,"period_min":93.690804185824,"perigee_km":454.13637411468,"apogee_km":456.01140718307,"semimajor_km":6833.2108906489,"source":"CELESTRAK","updated_at":"2026-09-21T09:00:32.896632Z"}}}